owner,sensor,date,latitude,longitude,vertical_datum,wind_speed,wind_to_direction,wind_speed_of_gust,qcFlag 
DISL,ioos:station:DISL:KATA:1,2012-06-01T00:00:00Z,30.2583,-88.2131,0.0,16.43,306.9,-9999.0,'1111122,1111122,1111122' 
DISL,ioos:station:DISL:KATA:1,2012-06-01T00:30:00Z,30.2583,-88.2131,0.0,9.34,331.5,-9999.0,'1111122,1111122,1111122' 
DISL,ioos:station:DISL:KATA:1,2012-06-01T01:00:00Z,30.2583,-88.2131,0.0,6.18,351.1,-9999.0,'1111122,1111122,1111122' 
DISL,ioos:station:DISL:KATA:1,2012-06-01T01:30:00Z,30.2583,-88.2131,0.0,3.71,45.0,-9999.0,'1111122,1111122,1111122' 
DISL,ioos:station:DISL:KATA:1,2012-06-01T02:00:00Z,30.2583,-88.2131,0.0,2.6,67.69,-9999.0,'1111122,1111122,1111122' 
DISL,ioos:station:DISL:KATA:1,2012-06-01T02:30:00Z,30.2583,-88.2131,0.0,3.32,22.59,-9999.0,'1111122,1111122,1111122' 
DISL,ioos:station:DISL:KATA:1,2012-06-01T03:00:00Z,30.2583,-88.2131,0.0,3.72,15.34,-9999.0,'1111122,1111122,1111122' 
DISL,ioos:station:DISL:KATA:1,2012-06-01T03:30:00Z,30.2583,-88.2131,0.0,3.65,55.63,-9999.0,'1111122,1111122,1111122' 
DISL,ioos:station:DISL:KATA:1,2012-06-01T04:00:00Z,30.2583,-88.2131,0.0,4.94,65.29,-9999.0,'1111122,1111122,1111122' 
DISL,ioos:station:DISL:KATA:1,2012-06-01T04:30:00Z,30.2583,-88.2131,0.0,5.09,94.2,-9999.0,'1111122,1111122,1111122' 
DISL,ioos:station:DISL:KATA:1,2012-06-01T05:00:00Z,30.2583,-88.2131,0.0,4.1,96.5,-9999.0,'1111122,1111122,1111122' 
DISL,ioos:station:DISL:KATA:1,2012-06-01T05:30:00Z,30.2583,-88.2131,0.0,4.4,102.9,-9999.0,'1111122,1111122,1111122' 
DISL,ioos:station:DISL:KATA:1,2012-06-01T06:00:00Z,30.2583,-88.2131,0.0,3.98,117.3,-9999.0,'1111122,1111122,1111122' 
DISL,ioos:station:DISL:KATA:1,2012-06-01T06:30:00Z,30.2583,-88.2131,0.0,4.84,129.0,-9999.0,'1111122,1111122,1111122' 
DISL,ioos:station:DISL:KATA:1,2012-06-01T07:00:00Z,30.2583,-88.2131,0.0,4.66,126.0,-9999.0,'1111122,1111122,1111122' 
DISL,ioos:station:DISL:KATA:1,2012-06-01T07:30:00Z,30.2583,-88.2131,0.0,5.3,124.1,-9999.0,'1111122,1111122,1111122' 
DISL,ioos:station:DISL:KATA:1,2012-06-01T08:00:00Z,30.2583,-88.2131,0.0,3.74,116.6,-9999.0,'1111122,1111122,1111122' 
DISL,ioos:station:DISL:KATA:1,2012-06-01T08:30:00Z,30.2583,-88.2131,0.0,6.84,291.5,-9999.0,'1111122,1111122,1111122' 
DISL,ioos:station:DISL:KATA:1,2012-06-01T09:00:00Z,30.2583,-88.2131,0.0,4.65,317.0,-9999.0,'1111122,1111122,1111122' 
DISL,ioos:station:DISL:KATA:1,2012-06-01T09:30:00Z,30.2583,-88.2131,0.0,2.83,334.4,-9999.0,'1111122,1111122,1111122' 
DISL,ioos:station:DISL:KATA:1,2012-06-01T10:00:00Z,30.2583,-88.2131,0.0,2.06,321.2,-9999.0,'1111122,1111122,1111122' 
DISL,ioos:station:DISL:KATA:1,2012-06-01T10:30:00Z,30.2583,-88.2131,0.0,2.48,299.6,-9999.0,'1111122,1111122,1111122' 
DISL,ioos:station:DISL:KATA:1,2012-06-01T11:00:00Z,30.2583,-88.2131,0.0,1.66,340.3,-9999.0,'1111122,1111122,1111122' 
DISL,ioos:station:DISL:KATA:1,2012-06-01T11:30:00Z,30.2583,-88.2131,0.0,4.62,261.3,-9999.0,'1111122,1111122,1111122' 
DISL,ioos:station:DISL:KATA:1,2012-06-01T12:00:00Z,30.2583,-88.2131,0.0,5.28,242.8,-9999.0,'1111122,1111122,1111122' 
DISL,ioos:station:DISL:KATA:1,2012-06-01T12:30:00Z,30.2583,-88.2131,0.0,6.73,241.2,-9999.0,'1111122,1111122,1111122' 
DISL,ioos:station:DISL:KATA:1,2012-06-01T13:00:00Z,30.2583,-88.2131,0.0,6.02,234.3,-9999.0,'1111122,1111122,1111122' 
DISL,ioos:station:DISL:KATA:1,2012-06-01T13:30:00Z,30.2583,-88.2131,0.0,5.65,226.6,-9999.0,'1111122,1111122,1111122' 
DISL,ioos:station:DISL:KATA:1,2012-06-01T14:00:00Z,30.2583,-88.2131,0.0,6.45,261.3,-9999.0,'1111122,1111122,1111122' 
DISL,ioos:station:DISL:KATA:1,2012-06-01T14:30:00Z,30.2583,-88.2131,0.0,6.68,265.7,-9999.0,'1111122,1111122,1111122' 
DISL,ioos:station:DISL:KATA:1,2012-06-01T15:00:00Z,30.2583,-88.2131,0.0,7.29,269.3,-9999.0,'1111122,1111122,1111122' 
DISL,ioos:station:DISL:KATA:1,2012-06-01T15:30:00Z,30.2583,-88.2131,0.0,8.43,254.5,-9999.0,'1111122,1111122,1111122' 
DISL,ioos:station:DISL:KATA:1,2012-06-01T16:00:00Z,30.2583,-88.2131,0.0,8.77,299.7,-9999.0,'1111122,1111122,1111122' 
DISL,ioos:station:DISL:KATA:1,2012-06-01T16:30:00Z,30.2583,-88.2131,0.0,6.91,311.2,-9999.0,'1111122,1111122,1111122' 
DISL,ioos:station:DISL:KATA:1,2012-06-01T17:00:00Z,30.2583,-88.2131,0.0,5.33,317.1,-9999.0,'1111122,1111122,1111122' 
DISL,ioos:station:DISL:KATA:1,2012-06-01T17:30:00Z,30.2583,-88.2131,0.0,4.2,311.5,-9999.0,'1111122,1111122,1111122' 
DISL,ioos:station:DISL:KATA:1,2012-06-01T18:00:00Z,30.2583,-88.2131,0.0,3.31,300.7,-9999.0,'1111122,1111122,1111122' 
DISL,ioos:station:DISL:KATA:1,2012-06-01T18:30:00Z,30.2583,-88.2131,0.0,1.46,302.1,-9999.0,'1111122,1111122,1111122' 
DISL,ioos:station:DISL:KATA:1,2012-06-01T19:00:00Z,30.2583,-88.2131,0.0,2.66,248.2,-9999.0,'1111122,1111122,1111122' 
DISL,ioos:station:DISL:KATA:1,2012-06-01T19:30:00Z,30.2583,-88.2131,0.0,3.47,252.3,-9999.0,'1111122,1111122,1111122' 
DISL,ioos:station:DISL:KATA:1,2012-06-01T20:00:00Z,30.2583,-88.2131,0.0,5.16,250.6,-9999.0,'1111122,1111122,1111122' 
DISL,ioos:station:DISL:KATA:1,2012-06-01T20:30:00Z,30.2583,-88.2131,0.0,5.67,232.7,-9999.0,'1111122,1111122,1111122' 
DISL,ioos:station:DISL:KATA:1,2012-06-01T21:00:00Z,30.2583,-88.2131,0.0,6.51,236.0,-9999.0,'1111122,1111122,1111122' 
DISL,ioos:station:DISL:KATA:1,2012-06-01T21:30:00Z,30.2583,-88.2131,0.0,6.37,230.3,-9999.0,'1111122,1111122,1111122' 
DISL,ioos:station:DISL:KATA:1,2012-06-01T22:00:00Z,30.2583,-88.2131,0.0,5.97,239.7,-9999.0,'1111122,1111122,1111122' 
DISL,ioos:station:DISL:KATA:1,2012-06-01T22:30:00Z,30.2583,-88.2131,0.0,5.1,283.5,-9999.0,'1111122,1111122,1111122' 
DISL,ioos:station:DISL:KATA:1,2012-06-01T23:00:00Z,30.2583,-88.2131,0.0,6.76,327.3,-9999.0,'1111122,1111122,1111122' 
DISL,ioos:station:DISL:KATA:1,2012-06-01T23:30:00Z,30.2583,-88.2131,0.0,6.78,332.6,-9999.0,'1111122,1111122,1111122' 
DISL,ioos:station:DISL:KATA:1,2012-06-02T00:00:00Z,30.2583,-88.2131,0.0,7.25,333.2,-9999.0,'1111122,1111122,1111122' 
DISL,ioos:station:DISL:KATA:1,2012-06-02T00:30:00Z,30.2583,-88.2131,0.0,8.59,329.9,-9999.0,'1111122,1111122,1111122' 
DISL,ioos:station:DISL:KATA:1,2012-06-02T01:00:00Z,30.2583,-88.2131,0.0,9.8,334.4,-9999.0,'1111122,1111122,1111122' 
DISL,ioos:station:DISL:KATA:1,2012-06-02T01:30:00Z,30.2583,-88.2131,0.0,8.79,339.1,-9999.0,'1111122,1111122,1111122' 
DISL,ioos:station:DISL:KATA:1,2012-06-02T02:00:00Z,30.2583,-88.2131,0.0,8.88,350.7,-9999.0,'1111122,1111122,1111122' 
DISL,ioos:station:DISL:KATA:1,2012-06-02T02:30:00Z,30.2583,-88.2131,0.0,8.6,356.0,-9999.0,'1111122,1111122,1111122' 
DISL,ioos:station:DISL:KATA:1,2012-06-02T03:00:00Z,30.2583,-88.2131,0.0,8.66,358.2,-9999.0,'1111122,1111122,1111122' 
DISL,ioos:station:DISL:KATA:1,2012-06-02T03:30:00Z,30.2583,-88.2131,0.0,8.24,1.75,-9999.0,'1111122,1111122,1111122' 
DISL,ioos:station:DISL:KATA:1,2012-06-02T04:00:00Z,30.2583,-88.2131,0.0,8.54,8.89,-9999.0,'1111122,1111122,1111122' 
DISL,ioos:station:DISL:KATA:1,2012-06-02T04:30:00Z,30.2583,-88.2131,0.0,9.92,357.0,-9999.0,'1111122,1111122,1111122' 
DISL,ioos:station:DISL:KATA:1,2012-06-02T05:00:00Z,30.2583,-88.2131,0.0,9.2,8.78,-9999.0,'1111122,1111122,1111122' 
DISL,ioos:station:DISL:KATA:1,2012-06-02T05:30:00Z,30.2583,-88.2131,0.0,8.01,18.24,-9999.0,'1111122,1111122,1111122' 
DISL,ioos:station:DISL:KATA:1,2012-06-02T06:00:00Z,30.2583,-88.2131,0.0,8.02,15.28,-9999.0,'1111122,1111122,1111122' 
DISL,ioos:station:DISL:KATA:1,2012-06-02T06:30:00Z,30.2583,-88.2131,0.0,7.43,13.58,-9999.0,'1111122,1111122,1111122' 
DISL,ioos:station:DISL:KATA:1,2012-06-02T07:00:00Z,30.2583,-88.2131,0.0,7.74,10.9,-9999.0,'1111122,1111122,1111122' 
DISL,ioos:station:DISL:KATA:1,2012-06-02T07:30:00Z,30.2583,-88.2131,0.0,6.63,7.615,-9999.0,'1111122,1111122,1111122' 
DISL,ioos:station:DISL:KATA:1,2012-06-02T08:00:00Z,30.2583,-88.2131,0.0,7.14,9.78,-9999.0,'1111122,1111122,1111122' 
DISL,ioos:station:DISL:KATA:1,2012-06-02T08:30:00Z,30.2583,-88.2131,0.0,6.55,21.46,-9999.0,'1111122,1111122,1111122' 
DISL,ioos:station:DISL:KATA:1,2012-06-02T09:00:00Z,30.2583,-88.2131,0.0,5.92,22.38,-9999.0,'1111122,1111122,1111122' 
DISL,ioos:station:DISL:KATA:1,2012-06-02T09:30:00Z,30.2583,-88.2131,0.0,6.61,9.51,-9999.0,'1111122,1111122,1111122' 
DISL,ioos:station:DISL:KATA:1,2012-06-02T10:00:00Z,30.2583,-88.2131,0.0,6.67,0.937,-9999.0,'1111122,1111122,1111122' 
DISL,ioos:station:DISL:KATA:1,2012-06-02T10:30:00Z,30.2583,-88.2131,0.0,6.6,16.25,-9999.0,'1111122,1111122,1111122' 
DISL,ioos:station:DISL:KATA:1,2012-06-02T11:00:00Z,30.2583,-88.2131,0.0,6.26,17.25,-9999.0,'1111122,1111122,1111122' 
DISL,ioos:station:DISL:KATA:1,2012-06-02T11:30:00Z,30.2583,-88.2131,0.0,5.63,24.45,-9999.0,'1111122,1111122,1111122' 
DISL,ioos:station:DISL:KATA:1,2012-06-02T12:00:00Z,30.2583,-88.2131,0.0,5.33,31.58,-9999.0,'1111122,1111122,1111122' 
DISL,ioos:station:DISL:KATA:1,2012-06-02T12:30:00Z,30.2583,-88.2131,0.0,5.01,29.22,-9999.0,'1111122,1111122,1111122' 
DISL,ioos:station:DISL:KATA:1,2012-06-02T13:00:00Z,30.2583,-88.2131,0.0,4.43,32.55,-9999.0,'1111122,1111122,1111122' 
DISL,ioos:station:DISL:KATA:1,2012-06-02T13:30:00Z,30.2583,-88.2131,0.0,5.41,51.28,-9999.0,'1111122,1111122,1111122' 
DISL,ioos:station:DISL:KATA:1,2012-06-02T14:00:00Z,30.2583,-88.2131,0.0,5.23,39.42,-9999.0,'1111122,1111122,1111122' 
DISL,ioos:station:DISL:KATA:1,2012-06-02T14:30:00Z,30.2583,-88.2131,0.0,4.62,38.17,-9999.0,'1111122,1111122,1111122' 
DISL,ioos:station:DISL:KATA:1,2012-06-02T15:00:00Z,30.2583,-88.2131,0.0,4.39,19.43,-9999.0,'1111122,1111122,1111122' 
DISL,ioos:station:DISL:KATA:1,2012-06-02T15:30:00Z,30.2583,-88.2131,0.0,1.96,19.34,-9999.0,'1111122,1111122,1111122' 
DISL,ioos:station:DISL:KATA:1,2012-06-02T16:00:00Z,30.2583,-88.2131,0.0,2.41,49.67,-9999.0,'1111122,1111122,1111122' 
DISL,ioos:station:DISL:KATA:1,2012-06-02T16:30:00Z,30.2583,-88.2131,0.0,1.85,352.1,-9999.0,'1111122,1111122,1111122' 
DISL,ioos:station:DISL:KATA:1,2012-06-02T17:00:00Z,30.2583,-88.2131,0.0,1.04,309.7,-9999.0,'1111122,1111122,1111122' 
DISL,ioos:station:DISL:KATA:1,2012-06-02T17:30:00Z,30.2583,-88.2131,0.0,0.07,56.85,-9999.0,'1111122,1111122,1111122' 
DISL,ioos:station:DISL:KATA:1,2012-06-02T18:00:00Z,30.2583,-88.2131,0.0,1.77,194.8,-9999.0,'1111122,1111122,1111122' 
DISL,ioos:station:DISL:KATA:1,2012-06-02T18:30:00Z,30.2583,-88.2131,0.0,2.18,164.2,-9999.0,'1111122,1111122,1111122' 
DISL,ioos:station:DISL:KATA:1,2012-06-02T19:00:00Z,30.2583,-88.2131,0.0,2.0,167.7,-9999.0,'1111122,1111122,1111122' 
DISL,ioos:station:DISL:KATA:1,2012-06-02T19:30:00Z,30.2583,-88.2131,0.0,1.23,181.6,-9999.0,'1111122,1111122,1111122' 
DISL,ioos:station:DISL:KATA:1,2012-06-02T20:00:00Z,30.2583,-88.2131,0.0,2.89,172.1,-9999.0,'1111122,1111122,1111122' 
DISL,ioos:station:DISL:KATA:1,2012-06-02T20:30:00Z,30.2583,-88.2131,0.0,2.41,167.0,-9999.0,'1111122,1111122,1111122' 
DISL,ioos:station:DISL:KATA:1,2012-06-02T21:00:00Z,30.2583,-88.2131,0.0,2.61,151.3,-9999.0,'1111122,1111122,1111122' 
DISL,ioos:station:DISL:KATA:1,2012-06-02T21:30:00Z,30.2583,-88.2131,0.0,3.51,168.6,-9999.0,'1111122,1111122,1111122' 
DISL,ioos:station:DISL:KATA:1,2012-06-02T22:00:00Z,30.2583,-88.2131,0.0,3.14,185.1,-9999.0,'1111122,1111122,1111122' 
DISL,ioos:station:DISL:KATA:1,2012-06-02T22:30:00Z,30.2583,-88.2131,0.0,3.38,192.9,-9999.0,'1111122,1111122,1111122' 
DISL,ioos:station:DISL:KATA:1,2012-06-02T23:00:00Z,30.2583,-88.2131,0.0,4.0,207.3,-9999.0,'1111122,1111122,1111122' 
DISL,ioos:station:DISL:KATA:1,2012-06-02T23:30:00Z,30.2583,-88.2131,0.0,5.83,212.9,-9999.0,'1111122,1111122,1111122' 
DISL,ioos:station:DISL:KATA:1,2012-06-03T00:00:00Z,30.2583,-88.2131,0.0,5.55,214.1,-9999.0,'1111122,1111122,1111122' 
DISL,ioos:station:DISL:KATA:1,2012-06-03T00:30:00Z,30.2583,-88.2131,0.0,5.77,222.6,-9999.0,'1111122,1111122,1111122' 
DISL,ioos:station:DISL:KATA:1,2012-06-03T01:00:00Z,30.2583,-88.2131,0.0,5.2,231.8,-9999.0,'1111122,1111122,1111122' 
DISL,ioos:station:DISL:KATA:1,2012-06-03T01:30:00Z,30.2583,-88.2131,0.0,4.97,225.5,-9999.0,'1111122,1111122,1111122' 
DISL,ioos:station:DISL:KATA:1,2012-06-03T02:00:00Z,30.2583,-88.2131,0.0,5.33,221.3,-9999.0,'1111122,1111122,1111122' 
DISL,ioos:station:DISL:KATA:1,2012-06-03T02:30:00Z,30.2583,-88.2131,0.0,4.87,223.4,-9999.0,'1111122,1111122,1111122' 
DISL,ioos:station:DISL:KATA:1,2012-06-03T03:00:00Z,30.2583,-88.2131,0.0,4.28,223.8,-9999.0,'1111122,1111122,1111122' 
DISL,ioos:station:DISL:KATA:1,2012-06-03T03:30:00Z,30.2583,-88.2131,0.0,4.17,225.9,-9999.0,'1111122,1111122,1111122' 
DISL,ioos:station:DISL:KATA:1,2012-06-03T04:00:00Z,30.2583,-88.2131,0.0,4.54,235.6,-9999.0,'1111122,1111122,1111122' 
DISL,ioos:station:DISL:KATA:1,2012-06-03T04:30:00Z,30.2583,-88.2131,0.0,3.84,235.7,-9999.0,'1111122,1111122,1111122' 
DISL,ioos:station:DISL:KATA:1,2012-06-03T05:00:00Z,30.2583,-88.2131,0.0,4.26,227.2,-9999.0,'1111122,1111122,1111122' 
DISL,ioos:station:DISL:KATA:1,2012-06-03T05:30:00Z,30.2583,-88.2131,0.0,3.97,223.2,-9999.0,'1111122,1111122,1111122' 
DISL,ioos:station:DISL:KATA:1,2012-06-03T06:00:00Z,30.2583,-88.2131,0.0,3.98,215.7,-9999.0,'1111122,1111122,1111122' 
DISL,ioos:station:DISL:KATA:1,2012-06-03T06:30:00Z,30.2583,-88.2131,0.0,4.41,216.6,-9999.0,'1111122,1111122,1111122' 
DISL,ioos:station:DISL:KATA:1,2012-06-03T07:00:00Z,30.2583,-88.2131,0.0,4.65,219.2,-9999.0,'1111122,1111122,1111122' 
DISL,ioos:station:DISL:KATA:1,2012-06-03T07:30:00Z,30.2583,-88.2131,0.0,4.46,213.3,-9999.0,'1111122,1111122,1111122' 
DISL,ioos:station:DISL:KATA:1,2012-06-03T08:00:00Z,30.2583,-88.2131,0.0,4.49,226.5,-9999.0,'1111122,1111122,1111122' 
DISL,ioos:station:DISL:KATA:1,2012-06-03T08:30:00Z,30.2583,-88.2131,0.0,4.25,233.4,-9999.0,'1111122,1111122,1111122' 
DISL,ioos:station:DISL:KATA:1,2012-06-03T09:00:00Z,30.2583,-88.2131,0.0,4.62,234.2,-9999.0,'1111122,1111122,1111122' 
DISL,ioos:station:DISL:KATA:1,2012-06-03T09:30:00Z,30.2583,-88.2131,0.0,3.97,237.6,-9999.0,'1111122,1111122,1111122' 
DISL,ioos:station:DISL:KATA:1,2012-06-03T10:00:00Z,30.2583,-88.2131,0.0,3.83,255.5,-9999.0,'1111122,1111122,1111122' 
DISL,ioos:station:DISL:KATA:1,2012-06-03T10:30:00Z,30.2583,-88.2131,0.0,4.22,263.2,-9999.0,'1111122,1111122,1111122' 
DISL,ioos:station:DISL:KATA:1,2012-06-03T11:00:00Z,30.2583,-88.2131,0.0,3.99,262.1,-9999.0,'1111122,1111122,1111122' 
DISL,ioos:station:DISL:KATA:1,2012-06-03T11:30:00Z,30.2583,-88.2131,0.0,3.73,262.7,-9999.0,'1111122,1111122,1111122' 
DISL,ioos:station:DISL:KATA:1,2012-06-03T12:00:00Z,30.2583,-88.2131,0.0,3.23,252.9,-9999.0,'1111122,1111122,1111122' 
DISL,ioos:station:DISL:KATA:1,2012-06-03T12:30:00Z,30.2583,-88.2131,0.0,2.91,235.1,-9999.0,'1111122,1111122,1111122' 
DISL,ioos:station:DISL:KATA:1,2012-06-03T13:00:00Z,30.2583,-88.2131,0.0,2.57,223.1,-9999.0,'1111122,1111122,1111122' 
DISL,ioos:station:DISL:KATA:1,2012-06-03T13:30:00Z,30.2583,-88.2131,0.0,2.08,222.1,-9999.0,'1111122,1111122,1111122' 
DISL,ioos:station:DISL:KATA:1,2012-06-03T14:00:00Z,30.2583,-88.2131,0.0,2.17,212.3,-9999.0,'1111122,1111122,1111122' 
DISL,ioos:station:DISL:KATA:1,2012-06-03T14:30:00Z,30.2583,-88.2131,0.0,2.43,212.0,-9999.0,'1111122,1111122,1111122' 
DISL,ioos:station:DISL:KATA:1,2012-06-03T15:00:00Z,30.2583,-88.2131,0.0,2.46,218.3,-9999.0,'1111122,1111122,1111122' 
DISL,ioos:station:DISL:KATA:1,2012-06-03T15:30:00Z,30.2583,-88.2131,0.0,2.68,244.6,-9999.0,'1111122,1111122,1111122' 
DISL,ioos:station:DISL:KATA:1,2012-06-03T16:00:00Z,30.2583,-88.2131,0.0,3.23,210.0,-9999.0,'1111122,1111122,1111122' 
DISL,ioos:station:DISL:KATA:1,2012-06-03T16:30:00Z,30.2583,-88.2131,0.0,3.78,209.3,-9999.0,'1111122,1111122,1111122' 
DISL,ioos:station:DISL:KATA:1,2012-06-03T17:00:00Z,30.2583,-88.2131,0.0,4.22,205.0,-9999.0,'1111122,1111122,1111122' 
DISL,ioos:station:DISL:KATA:1,2012-06-03T17:30:00Z,30.2583,-88.2131,0.0,4.25,212.6,-9999.0,'1111122,1111122,1111122' 
DISL,ioos:station:DISL:KATA:1,2012-06-03T18:00:00Z,30.2583,-88.2131,0.0,4.74,213.8,-9999.0,'1111122,1111122,1111122' 
DISL,ioos:station:DISL:KATA:1,2012-06-03T18:30:00Z,30.2583,-88.2131,0.0,5.41,215.1,-9999.0,'1111122,1111122,1111122' 
DISL,ioos:station:DISL:KATA:1,2012-06-03T19:00:00Z,30.2583,-88.2131,0.0,4.91,212.7,-9999.0,'1111122,1111122,1111122' 
DISL,ioos:station:DISL:KATA:1,2012-06-03T19:30:00Z,30.2583,-88.2131,0.0,5.08,213.0,-9999.0,'1111122,1111122,1111122' 
DISL,ioos:station:DISL:KATA:1,2012-06-03T20:00:00Z,30.2583,-88.2131,0.0,5.23,211.4,-9999.0,'1111122,1111122,1111122' 
DISL,ioos:station:DISL:KATA:1,2012-06-03T20:30:00Z,30.2583,-88.2131,0.0,5.3,212.2,-9999.0,'1111122,1111122,1111122' 
DISL,ioos:station:DISL:KATA:1,2012-06-03T21:00:00Z,30.2583,-88.2131,0.0,5.83,203.9,-9999.0,'1111122,1111122,1111122' 
DISL,ioos:station:DISL:KATA:1,2012-06-03T21:30:00Z,30.2583,-88.2131,0.0,5.91,200.6,-9999.0,'1111122,1111122,1111122' 
DISL,ioos:station:DISL:KATA:1,2012-06-03T22:00:00Z,30.2583,-88.2131,0.0,5.6,210.9,-9999.0,'1111122,1111122,1111122' 
DISL,ioos:station:DISL:KATA:1,2012-06-03T22:30:00Z,30.2583,-88.2131,0.0,5.07,219.5,-9999.0,'1111122,1111122,1111122' 
DISL,ioos:station:DISL:KATA:1,2012-06-03T23:00:00Z,30.2583,-88.2131,0.0,4.9,220.2,-9999.0,'1111122,1111122,1111122' 
DISL,ioos:station:DISL:KATA:1,2012-06-03T23:30:00Z,30.2583,-88.2131,0.0,4.32,219.5,-9999.0,'1111122,1111122,1111122' 
DISL,ioos:station:DISL:KATA:1,2012-06-04T00:00:00Z,30.2583,-88.2131,0.0,4.15,220.4,-9999.0,'1111122,1111122,1111122' 
DISL,ioos:station:DISL:KATA:1,2012-06-04T00:30:00Z,30.2583,-88.2131,0.0,3.84,223.8,-9999.0,'1111122,1111122,1111122' 
DISL,ioos:station:DISL:KATA:1,2012-06-04T01:00:00Z,30.2583,-88.2131,0.0,4.51,208.0,-9999.0,'1111122,1111122,1111122' 
DISL,ioos:station:DISL:KATA:1,2012-06-04T01:30:00Z,30.2583,-88.2131,0.0,4.88,211.2,-9999.0,'1111122,1111122,1111122' 
DISL,ioos:station:DISL:KATA:1,2012-06-04T02:00:00Z,30.2583,-88.2131,0.0,5.51,202.5,-9999.0,'1111122,1111122,1111122' 
DISL,ioos:station:DISL:KATA:1,2012-06-04T02:30:00Z,30.2583,-88.2131,0.0,6.5,201.2,-9999.0,'1111122,1111122,1111122' 
DISL,ioos:station:DISL:KATA:1,2012-06-04T03:00:00Z,30.2583,-88.2131,0.0,7.26,195.2,-9999.0,'1111122,1111122,1111122' 
DISL,ioos:station:DISL:KATA:1,2012-06-04T03:30:00Z,30.2583,-88.2131,0.0,6.34,204.7,-9999.0,'1111122,1111122,1111122' 
DISL,ioos:station:DISL:KATA:1,2012-06-04T04:00:00Z,30.2583,-88.2131,0.0,7.06,205.5,-9999.0,'1111122,1111122,1111122' 
DISL,ioos:station:DISL:KATA:1,2012-06-04T04:30:00Z,30.2583,-88.2131,0.0,6.79,210.7,-9999.0,'1111122,1111122,1111122' 
DISL,ioos:station:DISL:KATA:1,2012-06-04T05:00:00Z,30.2583,-88.2131,0.0,6.33,213.0,-9999.0,'1111122,1111122,1111122' 
DISL,ioos:station:DISL:KATA:1,2012-06-04T05:30:00Z,30.2583,-88.2131,0.0,5.9,217.4,-9999.0,'1111122,1111122,1111122' 
DISL,ioos:station:DISL:KATA:1,2012-06-04T06:00:00Z,30.2583,-88.2131,0.0,5.51,221.9,-9999.0,'1111122,1111122,1111122' 
DISL,ioos:station:DISL:KATA:1,2012-06-04T06:30:00Z,30.2583,-88.2131,0.0,5.6,226.6,-9999.0,'1111122,1111122,1111122' 
DISL,ioos:station:DISL:KATA:1,2012-06-04T07:00:00Z,30.2583,-88.2131,0.0,4.93,237.0,-9999.0,'1111122,1111122,1111122' 
DISL,ioos:station:DISL:KATA:1,2012-06-04T07:30:00Z,30.2583,-88.2131,0.0,5.58,241.2,-9999.0,'1111122,1111122,1111122' 
DISL,ioos:station:DISL:KATA:1,2012-06-04T08:00:00Z,30.2583,-88.2131,0.0,5.96,237.1,-9999.0,'1111122,1111122,1111122' 
DISL,ioos:station:DISL:KATA:1,2012-06-04T08:30:00Z,30.2583,-88.2131,0.0,6.59,244.2,-9999.0,'1111122,1111122,1111122' 
DISL,ioos:station:DISL:KATA:1,2012-06-04T09:00:00Z,30.2583,-88.2131,0.0,6.52,241.2,-9999.0,'1111122,1111122,1111122' 
DISL,ioos:station:DISL:KATA:1,2012-06-04T09:30:00Z,30.2583,-88.2131,0.0,5.83,232.4,-9999.0,'1111122,1111122,1111122' 
DISL,ioos:station:DISL:KATA:1,2012-06-04T10:00:00Z,30.2583,-88.2131,0.0,6.53,231.5,-9999.0,'1111122,1111122,1111122' 
DISL,ioos:station:DISL:KATA:1,2012-06-04T10:30:00Z,30.2583,-88.2131,0.0,6.74,243.1,-9999.0,'1111122,1111122,1111122' 
DISL,ioos:station:DISL:KATA:1,2012-06-04T11:00:00Z,30.2583,-88.2131,0.0,6.76,238.4,-9999.0,'1111122,1111122,1111122' 
DISL,ioos:station:DISL:KATA:1,2012-06-04T11:30:00Z,30.2583,-88.2131,0.0,6.73,239.6,-9999.0,'1111122,1111122,1111122' 
DISL,ioos:station:DISL:KATA:1,2012-06-04T12:00:00Z,30.2583,-88.2131,0.0,6.42,240.3,-9999.0,'1111122,1111122,1111122' 
DISL,ioos:station:DISL:KATA:1,2012-06-04T12:30:00Z,30.2583,-88.2131,0.0,6.38,253.9,-9999.0,'1111122,1111122,1111122' 
DISL,ioos:station:DISL:KATA:1,2012-06-04T13:00:00Z,30.2583,-88.2131,0.0,7.38,268.5,-9999.0,'1111122,1111122,1111122' 
DISL,ioos:station:DISL:KATA:1,2012-06-04T13:30:00Z,30.2583,-88.2131,0.0,8.01,280.2,-9999.0,'1111122,1111122,1111122' 
DISL,ioos:station:DISL:KATA:1,2012-06-04T14:00:00Z,30.2583,-88.2131,0.0,8.45,283.1,-9999.0,'1111122,1111122,1111122' 
DISL,ioos:station:DISL:KATA:1,2012-06-04T14:30:00Z,30.2583,-88.2131,0.0,7.68,272.5,-9999.0,'1111122,1111122,1111122' 
DISL,ioos:station:DISL:KATA:1,2012-06-04T15:00:00Z,30.2583,-88.2131,0.0,7.05,270.2,-9999.0,'1111122,1111122,1111122' 
DISL,ioos:station:DISL:KATA:1,2012-06-04T15:30:00Z,30.2583,-88.2131,0.0,7.42,271.9,-9999.0,'1111122,1111122,1111122' 
DISL,ioos:station:DISL:KATA:1,2012-06-04T16:00:00Z,30.2583,-88.2131,0.0,6.52,267.2,-9999.0,'1111122,1111122,1111122' 
DISL,ioos:station:DISL:KATA:1,2012-06-04T16:30:00Z,30.2583,-88.2131,0.0,6.7,266.8,-9999.0,'1111122,1111122,1111122' 
DISL,ioos:station:DISL:KATA:1,2012-06-04T17:00:00Z,30.2583,-88.2131,0.0,6.44,257.1,-9999.0,'1111122,1111122,1111122' 
DISL,ioos:station:DISL:KATA:1,2012-06-04T17:30:00Z,30.2583,-88.2131,0.0,6.09,254.1,-9999.0,'1111122,1111122,1111122' 
DISL,ioos:station:DISL:KATA:1,2012-06-04T18:00:00Z,30.2583,-88.2131,0.0,5.38,242.5,-9999.0,'1111122,1111122,1111122' 
DISL,ioos:station:DISL:KATA:1,2012-06-04T18:30:00Z,30.2583,-88.2131,0.0,5.93,228.4,-9999.0,'1111122,1111122,1111122' 
DISL,ioos:station:DISL:KATA:1,2012-06-04T19:00:00Z,30.2583,-88.2131,0.0,5.46,230.6,-9999.0,'1111122,1111122,1111122' 
DISL,ioos:station:DISL:KATA:1,2012-06-04T19:30:00Z,30.2583,-88.2131,0.0,6.5,231.1,-9999.0,'1111122,1111122,1111122' 
DISL,ioos:station:DISL:KATA:1,2012-06-04T20:00:00Z,30.2583,-88.2131,0.0,7.44,230.7,-9999.0,'1111122,1111122,1111122' 
DISL,ioos:station:DISL:KATA:1,2012-06-04T20:30:00Z,30.2583,-88.2131,0.0,6.66,230.2,-9999.0,'1111122,1111122,1111122' 
DISL,ioos:station:DISL:KATA:1,2012-06-04T21:00:00Z,30.2583,-88.2131,0.0,4.65,216.4,-9999.0,'1111122,1111122,1111122' 
DISL,ioos:station:DISL:KATA:1,2012-06-04T21:30:00Z,30.2583,-88.2131,0.0,5.19,214.6,-9999.0,'1111122,1111122,1111122' 
DISL,ioos:station:DISL:KATA:1,2012-06-04T22:00:00Z,30.2583,-88.2131,0.0,5.78,224.6,-9999.0,'1111122,1111122,1111122' 
DISL,ioos:station:DISL:KATA:1,2012-06-04T22:30:00Z,30.2583,-88.2131,0.0,5.07,238.0,-9999.0,'1111122,1111122,1111122' 
DISL,ioos:station:DISL:KATA:1,2012-06-04T23:00:00Z,30.2583,-88.2131,0.0,6.12,227.7,-9999.0,'1111122,1111122,1111122' 
DISL,ioos:station:DISL:KATA:1,2012-06-04T23:30:00Z,30.2583,-88.2131,0.0,5.76,221.3,-9999.0,'1111122,1111122,1111122' 
DISL,ioos:station:DISL:KATA:1,2012-06-05T00:00:00Z,30.2583,-88.2131,0.0,4.88,228.3,-9999.0,'1111122,1111122,1111122' 
DISL,ioos:station:DISL:KATA:1,2012-06-05T00:30:00Z,30.2583,-88.2131,0.0,5.71,220.7,-9999.0,'1111122,1111122,1111122' 
DISL,ioos:station:DISL:KATA:1,2012-06-05T01:00:00Z,30.2583,-88.2131,0.0,5.05,218.4,-9999.0,'1111122,1111122,1111122' 
DISL,ioos:station:DISL:KATA:1,2012-06-05T01:30:00Z,30.2583,-88.2131,0.0,5.46,219.7,-9999.0,'1111122,1111122,1111122' 
DISL,ioos:station:DISL:KATA:1,2012-06-05T02:00:00Z,30.2583,-88.2131,0.0,5.72,223.3,-9999.0,'1111122,1111122,1111122' 
DISL,ioos:station:DISL:KATA:1,2012-06-05T02:30:00Z,30.2583,-88.2131,0.0,5.36,215.9,-9999.0,'1111122,1111122,1111122' 
DISL,ioos:station:DISL:KATA:1,2012-06-05T03:00:00Z,30.2583,-88.2131,0.0,5.71,214.8,-9999.0,'1111122,1111122,1111122' 
DISL,ioos:station:DISL:KATA:1,2012-06-05T03:30:00Z,30.2583,-88.2131,0.0,5.64,215.1,-9999.0,'1111122,1111122,1111122' 
DISL,ioos:station:DISL:KATA:1,2012-06-05T04:00:00Z,30.2583,-88.2131,0.0,5.38,222.9,-9999.0,'1111122,1111122,1111122' 
DISL,ioos:station:DISL:KATA:1,2012-06-05T04:30:00Z,30.2583,-88.2131,0.0,4.77,224.8,-9999.0,'1111122,1111122,1111122' 